Regional Weather Roundup
Issued by NWS Cleveland, OH

Home | Current Version | Previous Version | Graphics & Text | Print | Product List | Glossary On
Versions: 1 2 3 4 5 6 7 8 9 10 11 12 13 14 15 16 17 18 19 20 21 22 23 24 25 26 27 28 29 30 31 32 33 34 35 36 37 38 39 40 41 42 43 44 45 46 47 48 49 50
736
ASUS41 KCLE 252010
RWRCLE
OHIO REGIONAL WEATHER ROUNDUP
NATIONAL WEATHER SERVICE WILMINGTON, OH
400 PM EDT THU AUG 25 2016

NOTE: "FAIR" INDICATES FEW OR NO CLOUDS BELOW 12,000 FEET WITH NO
SIGNIFICANT WEATHER AND/OR OBSTRUCTIONS TO VISIBILITY.

OHZ001>008-015>018-024>027-034-035-043-044-252100-
   NORTHWEST OHIO

CITY           SKY/WX    TMP DP  RH WIND       PRES   REMARKS
DEFIANCE       FAIR      86  67  52 W10G18    30.01S
FINDLAY        FAIR      89  68  49 SW16G25   30.00S HX  93
TOLEDO EXPRESS FAIR      87  70  56 W20G28    29.98F HX  92
TOLEDO EXEC    FAIR      88  71  57 W17G25    29.99S HX  94
LIMA           FAIR      87  73  62 W18       30.03F HX  94
$$

OHZ009>014-019>023-028>033-038-089-252100-
   NORTHEAST OHIO

CITY           SKY/WX    TMP DP  RH WIND       PRES   REMARKS
CLE-HOPKINS    PTSUNNY   91  70  49 SW13G22   29.99F HX  96
CLE-LAKEFRONT  PTSUNNY   93  68  43 S14G23    29.95F HX  97
CUY CO. ARPT   PTSUNNY   90  75  62 SW9       29.98F HX 100
LORAIN-ELYRIA  FAIR      88  72  58 W17G23    29.99F HX  94
ASHTABULA      FAIR      86  74  67 S10       29.99F HX  94
AKRON-CANTON   FAIR      89  70  53 SW17      30.02F HX  94
WOOSTER        FAIR      86  73  65 SW12G20   30.02F HX  93
MANSFIELD      FAIR      88  72  58 SW13G21   30.03F HX  94
YOUNGSTOWN     FAIR      87  71  58 SW10      30.01F HX  93
$$

OHZ042-051>053-060>062-070>072-077>081-252100-
  SOUTHWEST OHIO

CITY           SKY/WX    TMP DP  RH WIND       PRES   REMARKS
CINC-COVINGTON FAIR      90  73  57 SW14      30.07F HX  98
CINC-LUNKEN    FAIR      89  74  60 SW12      30.05F HX  98
HAMILTON       PTSUNNY   90  74  59 W9        30.06F HX  99
DAYTON         FAIR      88  72  58 SW16G22   30.07S HX  94
WRIGHT-PAT AFB FAIR      89  74  61 SW12      30.05S HX  98
DAYTON GENERAL FAIR      88  71  57 W12       30.06F HX  94
WILMINGTON     FAIR      88  74  63 SW14      30.07S HX  96
$$

OHZ036-037-039>041-045>050-054>059-063>069-073>076-082>088-252100-
  CENTRAL AND SOUTHEAST OHIO

CITY           SKY/WX    TMP DP  RH WIND       PRES   REMARKS
COLUMBUS       FAIR      87  74  64 SW16G28   30.03F HX  95
OSU AIRPORT    PTSUNNY   87  75  67 SW13G20   30.04F HX  96
BOLTON FIELD   PTSUNNY   88  75  66 SW10G21   30.06S HX  97
RICKENBACK AFB FAIR      88  76  67 W15       30.04F HX  98
NEWARK         PTSUNNY   85  76  74 SW8G20    30.04S HX  94
MARION         FAIR      89  72  56 W12       30.03F HX  96
LANCASTER      FAIR      88  76  67 SW12G18   30.06S HX  99
ZANESVILLE     FAIR      88  74  63 SW8       30.04F HX  96
NEW PHILLY     FAIR      91  73  55 SW10      30.03F HX  99
$$




USA.gov is the U.S. government's official web portal to all federal, state and local government web resources and services.